FIN145 EFHK-VTBS

Flight info

Callsign FIN145
Flight time N/A
Altitude 34000
Route KOIVU4P KOIVU Y123 LARTI DCT NAVOT DCT ORTAX DCT LUTAL P870 BERIL/N0471F330 DCT BOKSU/N0472F340 DCT TOXAR DCT ROBTU/N0478F330 DCT KENIN DCT DINRO/N0471F350 DCT UDROS DCT BAMUP DCT ROLIN N644 ODILI DCT BARAD M747 BODKA P130 MAMED B449 KEMOR A125 BELUG/N0473F370 A846 RANAH L750 MERUN G452 LKN R460 BBN/N0471F390 R460 CEA Q26 DOPID P646 PTN N895 BETNO G463 TARED DCT WILLA WILLA1C
Aircraft A339/H-SADE1E2E3GHIJ3J5M1P2RWXY/LB2D1

Departure

Time 2026-04-21 13:25
Airport Helsinki Vantaa Airport (EFHK)

Arrival

Time N/A
Airport Suvarnabhumi Airport (VTBS)
Time Latitude Longitude Altitude Speed Heading
2026-04-21 13:10 60.31602 24.97309 200 ft 0 kts 243°
2026-04-21 13:16 60.31605 24.97324 200 ft 2 kts 239°
2026-04-21 13:17 60.31615 24.97347 200 ft 2 kts 216°
2026-04-21 13:17 60.31628 24.97362 200 ft 2 kts 198°
2026-04-21 13:17 60.31643 24.97368 200 ft 2 kts 180°
2026-04-21 13:17 60.31657 24.97365 200 ft 2 kts 162°
2026-04-21 13:18 60.31665 24.97358 200 ft 0 kts 151°
2026-04-21 13:18 60.31669 24.97355 200 ft 0 kts 151°
2026-04-21 13:20 60.31663 24.97361 200 ft 4 kts 152°
2026-04-21 13:20 60.31612 24.97417 199 ft 11 kts 151°
2026-04-21 13:21 60.31540 24.97543 197 ft 16 kts 113°
2026-04-21 13:21 60.31464 24.97718 193 ft 18 kts 150°
2026-04-21 13:21 60.31342 24.97855 191 ft 21 kts 153°
2026-04-21 13:21 60.31206 24.97998 191 ft 21 kts 152°
2026-04-21 13:22 60.31071 24.98129 188 ft 21 kts 156°
2026-04-21 13:22 60.30933 24.98253 188 ft 21 kts 158°
2026-04-21 13:22 60.30797 24.98360 187 ft 20 kts 157°
2026-04-21 13:22 60.30663 24.98477 185 ft 20 kts 154°
2026-04-21 13:23 60.30624 24.98680 182 ft 15 kts 45°
2026-04-21 13:23 60.30729 24.98743 181 ft 15 kts 360°
2026-04-21 13:23 60.30777 24.98607 182 ft 10 kts 264°
2026-04-21 13:23 60.30761 24.98527 184 ft 3 kts 217°
2026-04-21 13:24 60.30723 24.98502 184 ft 7 kts 184°
2026-04-21 13:24 60.30661 24.98605 182 ft 16 kts 95°
2026-04-21 13:24 60.30720 24.98756 181 ft 13 kts 12°
2026-04-21 13:24 60.30871 24.98675 181 ft 47 kts 335°
2026-04-21 13:25 60.31364 24.98145 191 ft 110 kts 334°
2026-04-21 13:25 60.32216 24.97265 182 ft 162 kts 332°
2026-04-21 13:25 60.33239 24.96222 732 ft 164 kts 337°
2026-04-21 13:25 60.34195 24.95151 1421 ft 158 kts 319°
2026-04-21 13:26 60.34996 24.93685 1964 ft 161 kts 304°
2026-04-21 13:26 60.35220 24.91346 2235 ft 180 kts 275°
2026-04-21 13:26 60.35243 24.88729 2510 ft 195 kts 278°
2026-04-21 13:26 60.35258 24.85850 2806 ft 216 kts 259°
2026-04-21 13:27 60.34634 24.82991 3119 ft 236 kts 242°
2026-04-21 13:27 60.33708 24.80092 3445 ft 255 kts 240°
2026-04-21 13:27 60.32737 24.76984 3831 ft 269 kts 242°
2026-04-21 13:27 60.31776 24.73688 4502 ft 273 kts 243°
2026-04-21 13:28 60.30857 24.70394 5167 ft 275 kts 244°
2026-04-21 13:28 60.29799 24.67165 5774 ft 282 kts 225°
2026-04-21 13:28 60.28076 24.65260 6391 ft 288 kts 194°
2026-04-21 13:28 60.26112 24.64520 7018 ft 290 kts 189°
2026-04-21 13:29 60.24130 24.63877 7621 ft 295 kts 189°
2026-04-21 13:29 60.22095 24.63188 8192 ft 299 kts 190°
2026-04-21 13:29 60.20058 24.62457 8787 ft 302 kts 191°
2026-04-21 13:29 60.17965 24.61675 9388 ft 306 kts 191°
2026-04-21 13:30 60.15888 24.60886 9959 ft 309 kts 191°